Location: Puerto Pe�asco
(31.3170°N, 113.5330°W)
Time: 21:32:02
(UTC-07:00)

Daily predictions for brighter satellites

Satellite Brightness Start Highest point End
(mag) Time Altitude Azimuth Time Altitude Azimuth Time Altitude Azimuth
SL-16 R/B 2.2 18:42:21 10° NNW 18:48:00 65° ENE 18:53:36 10° SSE
CZ-4 R/B 4.2 18:46:43 10° SSW 18:50:07 25° W 18:53:36 10° NW
Cosmos 1709 Rocket 4.1 18:48:40 10° S 18:54:46 58° E 19:00:48 10° NNE
Tiangong 2 2.0 18:52:49 10° NW 18:55:36 31° NNE 18:58:22 10° E
SJ-6B 3.7 18:53:53 10° SE 18:57:23 29° ENE 19:00:51 10° NNE
Cosmos 1954 Rocket 4.0 18:52:34 10° S 18:57:43 78° ESE 19:02:56 10° NNE
Meteor 1-28 Rocket 3.8 18:54:09 10° N 18:57:56 63° WNW 19:01:41 10° SSW
Cosmos 2151 Rocket 3.7 18:54:35 10° S 18:59:04 84° W 19:03:36 10° N
Okean 1 Rocket 3.8 18:55:59 10° SSE 18:59:55 31° E 19:03:51 10° NNE
CZ-3C R/B 3.1 18:53:52 10° SW 19:00:01 19° SSW 19:02:40 10° SE
Meteor 1-18 Rocket 4.4 18:56:58 10° N 19:02:33 82° W 19:08:12 10° S
Hubble Space Telescope 2.5 19:00:27 10° SSW 19:03:32 20° SSE 19:06:36 10° ESE
Cosmos 2322 Rocket 2.3 18:58:43 10° NNW 19:04:21 87° WSW 19:09:58 10° SSE
FENGYUN 3A 4.4 19:02:15 10° SE 19:06:55 31° ENE 19:11:36 10° N
Gbstr 26 Del rocket 3.7 19:11:15 10° WSW 19:15:02 43° NW 19:18:36 10° NNE
BREEZE-M DEB (TANK) 4.5 19:13:59 10° N 19:15:53 14° NE 19:17:19 13° ENE
NOAA 12 4.1 19:12:10 10° SSE 19:17:28 80° ENE 19:22:48 10° N
GPS 2-04 Rocket1 2.8 19:13:23 10° WSW 19:17:39 87° SSE 19:21:01 17° ENE
Cosmos 1238 Rocket 2.5 19:16:27 10° NNE 19:19:14 38° E 19:22:07 10° SSE
Cosmos 2322 4.2 19:15:25 10° N 19:20:46 39° ENE 19:26:03 10° SE
Atlas Centaur 2 4.3 19:19:42 10° S 19:23:08 14° SSE 19:26:14 10° ESE
H-2A R/B 3.8 19:21:38 16° ESE 19:23:32 23° ENE 19:26:29 10° NNE
Cosmos 1536 3.0 19:20:17 10° SSE 19:24:06 46° E 19:27:56 10° NNE
Cosmos 1025 Rocket 4.3 19:21:21 10° NNE 19:24:40 21° ENE 19:25:45 19° E
Cosmos 1633 3.0 19:23:27 10° SSW 19:27:05 65° W 19:30:46 10° N
METEOR-M 4.2 19:23:20 10° S 19:28:39 81° WSW 19:34:01 10° NNW
GEOS 3 Rocket 3.7 19:24:05 10° NNE 19:29:21 86° WNW 19:34:39 10° SW
Meteor 1-13 Rocket 4.1 19:25:03 10° N 19:30:37 71° E 19:36:16 10° SSE
Okean 1-7 Rocket 4.2 19:27:24 10° NNE 19:31:32 34° E 19:35:35 10° SE
BREEZE-M DEB (TANK) 3.1 19:28:41 10° NW 19:34:34 51° NNE 19:35:46 30° E
COSMOS 2428 3.6 19:31:20 10° N 19:36:06 27° ENE 19:37:45 23° E
SL-08 ROCKET BODY 4.4 19:32:54 10° S 19:38:56 62° E 19:45:03 10° NNE
Meteor 2-4 Rocket 3.8 19:33:58 10° N 19:39:17 48° E 19:44:27 10° SSE
Cosmos 1536 Rocket 4.4 19:35:18 10° NNW 19:39:39 53° W 19:44:00 10° S
Cosmos 1741 Rocket 3.9 19:36:06 10° SSW 19:41:20 90° ESE 19:46:34 10° NNE
Cosmos 2219 3.2 19:45:30 10° SSW 19:51:15 86° WNW 19:57:01 10° NNE
Cosmos 2360 Rocket 2.2 19:49:28 10° NNW 19:55:09 87° WSW 20:00:48 10° SSE
Cosmos 2219 Rocket 3.6 19:52:30 10° NNE 19:55:22 20° NE 19:55:22 20° NE
Cosmos 2227 Rocket 3.5 19:52:52 10° SSE 19:55:24 22° SE 19:55:24 22° SE
Resurs 01 Rocket 1.5 19:56:59 10° SSE 20:01:23 90° NE 20:05:48 10° NNW
Abrixas rocket 3.7 19:58:30 10° W 20:01:33 32° NW 20:02:26 27° N
Cosmos 1570 Rocket 3.9 19:57:14 10° N 20:02:25 63° ENE 20:04:49 31° SE
Orbus 7S 4.2 20:00:35 10° WSW 20:03:04 33° S 20:03:27 32° S
Skynet4D Del rocket 4.3 19:58:16 10° SW 20:03:08 36° SSE 20:04:10 33° SE
DELTA 2 R/B (1) 3.5 20:05:27 10° WNW 20:11:05 76° NNE 20:12:19 55° E
ALOS 3.1 20:06:45 10° S 20:11:16 51° W 20:15:49 10° NNW
OAO 3 Copernicus 4.2 20:08:20 10° WNW 20:13:26 82° SSW 20:14:14 63° SE
Cosmos 1610 Rocket 4.3 20:08:28 10° S 20:14:42 74° E 20:20:52 10° N
Helios 1A 4.2 20:17:35 30° N 20:17:35 30° N 20:19:46 10° N
Spot 2 Rocket 3.8 20:13:51 10° S 20:18:50 65° WSW 20:23:52 10° NNW
Resurs 1-3 3.9 20:14:38 10° S 20:18:57 67° W 20:23:19 10° NNW
OTV 4 3.2 20:23:16 10° WSW 20:24:05 17° WSW 20:24:05 17° WSW
Cosmos 2208 Rocket 4.1 20:24:08 10° NNW 20:29:34 77° WSW 20:31:09 47° S
Cosmos 2333 Rocket 3.7 20:25:49 10° N 20:28:17 23° NNE 20:28:17 23° NNE
Centaur D-1A AC-35 4.4 20:17:54 10° W 20:31:17 31° SW 20:33:54 21° S
Tiangong 2 3.9 20:29:22 10° W 20:30:32 18° W 20:30:32 18° W
Helios 1B rocket 3.3 20:30:51 23° NNW 20:33:04 48° WNW 20:37:03 10° SSW
USA 229 DEB 3.8 20:35:17 10° NNW 20:42:02 61° NE 20:42:02 61° NE
USA 229 3.8 20:35:24 10° NNW 20:42:06 60° NE 20:42:06 60° NE
ATLAS 2A CENTAUR R/B 3.5 20:40:14 10° WSW 20:44:00 38° S 20:44:26 37° S
Hubble Space Telescope 2.8 20:40:26 10° WSW 20:42:10 23° SW 20:42:10 23° SW
Atlas Centaur 2 4.1 21:06:14 10° SW 21:08:55 22° SSW 21:08:55 22° SSW
COSMOS 2428 4.2 21:15:17 10° NW 21:19:51 32° W 21:19:51 32° W
H-2A R/B 4.1 21:29:29 10° SW 22:08:04 16° E 22:32:28 10° E
H-2A R/B 4.1 21:29:29 10° SW 22:08:05 16° E 22:32:29 10° E
H-2A R/B 4.1 21:29:29 10° SW 22:08:04 16° E 22:32:29 10° E
H-2A R/B 4.1 21:29:29 10° SW 22:08:05 16° E 22:32:28 10° E
Cosmos 2219 Rocket 4.5 21:35:34 10° NW 21:37:08 19° NW 21:37:08 19° NW
ATLAS 3B CENTAUR R/B 4.5 21:33:03 10° WSW 21:52:37 54° SSW 21:52:37 54° SSW
